Weather in Krasnyy Oktyabr

Russia / Belgorod Oblast     50°27′14″N   36°20′32″E
temp.,
°C
wind,
m/s
gust,
m/s
humid.,
%
clouds,
%
prec.,
mm/h
press.,
hPa
HPBL,
m
23 june, wed
wed2300:00+23ene6147628 0.0 1016326
03:00+21ene51577100 0.0 1015299
06:00+20ene51279100 0.0 1016228
09:00+24e586995 0.0 1016303
12:00+28ese695391 0.0 1016697
15:00+29ese5755100 0.0 1017986
18:00+27e4772100 0.0 1017363
21:00+23ene3384100 0.0 101841
24 june, thu
thu2400:00+21ene34865 0.0 101852
03:00+20ene478493 0.0 1018110
06:00+21ene6127555 0.0 1017186
09:00+26e5116794 0.0 1017321
12:00+29e6954100 0.0 1018709
15:00+30e5756100 0.0 10171100
18:00+29e5869100 0.0 1017656
21:00+24ene4784100 0.0 1017118
25 june, fri
fri2500:00+22ene368441 0.0 101786
03:00+21ne378189 0.0 1017101
06:00+21ene498593 0.0 1017207
09:00+26ene587065 0.0 1016456
12:00+30ene555987 0.0 1015837
15:00+30e5658100 0.0 10151230
18:00+28ene367299 0.0 1014451
21:00+24ene348499 0.0 101453
26 june, sat
sat2600:00+22ene488831 0.0 1014124
03:00+21e388726 0.1 1013138
06:00+21ene378850 0.8 1013145
09:00+26ene467021 1.0 1013358
12:00+30e575746 0.0 1012870
15:00+30e5762100 0.0 1012981
18:00+28e487234 0.0 1012666
21:00+23ene49723 0.3 1011141
27 june, sun
sun2700:00+22ene49805 0.0 1011155
03:00+22ene410803 0.0 1010173
06:00+21e5108452 0.0 1011222
09:00+26ese712685 0.0 1010635
12:00+28se8125599 0.0 10111053
15:00+27e257069 0.0 1010217
18:00+27e697112 1.8 1011352
21:00+20e499257 3.0 1011172